STARLINK-34791

Last updated on Mon Oct 20 2025 00:02:08 GMT+0000 (Coordinated Universal Time)

1 65891U 25224K 25292.25002315 -.01197913 00000+0 -53059-2 0 9998 2 65891 53.1509 313.3974 0001095 85.1352 84.3957 15.86124181 3155
UTC large
Height (km)
Speed (km/s)
/
Latitude / Longitude
Inclination (degrees)
Orbital Period (minutes)
Azimuth
Elevation
Range (km)
Doppler Factor

Next 0 passes for location: London (51.5072 / 0.1276)

Sorry there are no passes over London.